Theta_e
314 314 316 316 317 317 317 316 315 315 312 312 307 304 306 308 306 308 309 308 308 309 307 309 312 311 310 316 317 317 315 314 318 318 321 322 322 320 324 327 327 327 328 327 326 326 326
314 312 315 316 316 317 317 316 316 314 312 313 311 303 304 308 309 310 311 311 309 309 310 309 311 312 312 314 314 314 317 315 317 319 321 322 322 321 320 324 327 327 327 328 327 326 326
313 311 312 314 314 316 316 316 316 315 313 312 311 306 303 307 308 310 311 311 311 308 307 309 308 309 313 313 313 314 314 315 315 315 317 320 321 322 321 321 324 327 328 327 327 327 326
316 313 309 313 314 315 316 316 316 315 315 313 308 310 304 307 311 309 310 312 312 311 309 308 309 312 312 313 313 313 313 313 313 312 314 316 318 320 321 321 323 327 327 330 328 327 327
317 316 312 311 313 315 316 316 316 316 316 315 311 310 310 309 311 310 311 309 309 311 310 310 309 311 311 312 312 312 313 312 313 313 314 314 315 318 320 321 324 327 330 330 330 328 327
318 316 314 312 314 315 316 315 315 316 315 315 313 310 312 305 309 309 310 310 312 311 310 310 312 312 311 311 312 311 312 312 312 312 312 315 315 318 319 321 324 326 330 328 330 328 328
315 317 315 313 312 314 315 315 315 315 315 315 314 308 310 307 308 311 311 309 310 310 311 310 311 311 312 312 311 311 311 312 312 312 313 314 317 318 317 319 320 323 326 330 328 328 328
312 314 316 315 312 313 313 314 315 315 315 315 314 310 309 307 308 309 310 310 311 311 312 312 311 311 311 312 312 311 311 311 312 313 312 314 316 315 316 317 320 322 326 328 327 328 327
308 313 316 316 313 313 313 315 315 315 315 314 313 312 307 305 308 309 310 310 310 310 310 310 311 311 312 311 312 312 312 311 312 312 312 313 314 314 315 316 319 321 325 328 329 328 326
304 308 311 314 315 313 314 314 315 315 315 314 313 311 306 306 307 308 310 311 312 309 310 311 309 312 311 310 311 311 312 311 312 312 312 313 313 313 316 316 316 320 322 325 328 330 330
303 304 307 310 312 313 314 314 315 315 316 315 313 310 305 306 310 310 311 311 311 311 315 311 311 310 311 310 311 311 311 311 312 312 312 313 312 313 314 316 316 319 321 325 327 329 329
302 304 304 308 311 312 314 314 314 316 316 315 314 310 307 307 309 310 311 310 310 311 314 312 311 311 312 310 310 311 311 312 311 312 311 311 312 313 314 315 316 318 320 322 328 326 333
301 303 303 305 307 310 313 314 314 315 316 315 314 311 309 308 308 308 309 310 312 314 312 314 312 311 311 313 312 311 311 312 312 313 314 313 313 313 312 315 317 321 323 327 330 328 328
301 302 303 305 306 310 312 313 313 314 316 315 315 314 310 309 310 311 309 309 315 314 313 311 311 311 314 312 312 311 312 312 312 312 313 313 314 314 312 313 320 321 323 325 333 331 326
300 302 303 305 305 307 310 313 313 314 316 315 315 313 312 310 311 311 309 312 314 316 315 314 312 313 314 313 312 312 312 313 311 311 313 318 314 315 314 313 320 320 320 318 329 322 325
300 300 302 304 305 302 305 313 313 314 316 315 315 313 312 312 311 310 310 312 313 314 312 312 316 312 313 312 311 311 311 311 312 312 311 312 317 316 317 317 319 322 321 325 329 328 329
300 300 301 302 304 302 304 313 314 315 315 316 315 312 313 313 311 310 312 312 312 312 312 313 314 314 313 311 311 310 310 311 312 313 311 311 314 317 317 322 323 326 326 328 329 327 327
300 300 300 301 303 302 305 313 315 315 315 315 313 313 312 312 312 312 312 312 313 314 314 314 313 314 312 313 311 311 312 313 312 311 312 312 313 319 319 320 321 324 327 327 328 327 324
299 300 300 301 302 304 305 309 315 315 315 315 312 314 312 311 314 313 312 313 312 314 316 315 316 314 313 312 311 310 313 313 311 313 314 313 315 321 320 323 323 326 326 325 325 324 325
297 299 299 301 301 303 304 310 315 314 315 315 313 316 313 312 312 315 314 315 314 312 313 314 316 315 314 313 311 315 313 315 313 313 318 317 319 317 326 325 324 327 327 325 325 326 324
296 298 298 300 302 303 303 308 314 314 314 315 312 314 313 314 313 314 315 315 316 315 315 315 316 315 316 315 314 313 314 315 314 310 316 315 321 322 322 323 324 325 325 324 324 323 325
295 297 298 299 301 301 303 305 308 314 314 314 311 312 315 316 313 314 314 315 316 315 316 318 316 318 318 316 314 315 314 315 314 315 313 316 320 322 322 321 323 325 324 324 323 323 323
295 296 298 299 300 301 303 305 310 313 314 313 312 312 313 314 316 316 316 315 317 315 314 315 316 316 320 318 316 315 315 315 316 316 317 318 320 322 321 321 321 323 322 323 323 322 323
295 296 298 298 299 300 302 303 307 312 313 314 314 313 312 314 312 315 316 316 317 316 316 317 317 318 319 318 318 317 317 315 315 316 317 318 320 321 319 320 322 319 316 319 321 321 319
295 295 298 298 299 300 300 302 304 308 312 313 313 313 313 314 314 313 312 317 316 314 317 317 318 317 318 317 320 321 320 319 315 312 314 317 320 322 322 322 322 321 316 318 319 320 319
295 295 297 297 299 299 300 303 306 311 312 312 312 313 311 312 312 312 313 315 315 314 313 313 314 312 317 315 321 322 321 320 319 317 314 319 319 322 320 321 324 317 315 314 316 318 313
295 295 297 297 298 299 300 302 304 309 312 312 312 312 312 311 312 312 311 314 314 313 313 310 310 311 313 315 322 321 322 319 321 320 320 321 321 323 323 322 320 316 314 314 317 319 313
294 295 297 298 298 299 300 302 304 310 312 311 311 312 312 311 312 312 310 310 314 313 314 311 313 313 316 318 321 319 320 321 320 318 320 321 321 322 321 323 322 314 314 317 316 314 314
294 295 296 298 298 299 300 301 304 310 311 311 310 311 312 311 312 312 311 310 310 312 312 312 313 316 318 319 318 316 316 314 321 322 317 321 319 321 320 320 315 315 314 314 315 314 314
Wind_Speed
22 19 21 22 21 19 20 21 19 20 17 15 14 14 13 10 8 8 8 7 7 7 9 11 11 9 12 12 19 6 2 3 7 6 18 17 18 17 15 12 22 23 19 28 27 27 27
24 20 20 23 24 21 21 20 19 18 16 16 16 15 14 12 9 8 8 8 8 8 7 9 11 9 12 16 11 16 10 12 4 3 12 17 17 18 22 21 19 14 27 25 26 25 22
28 25 21 23 23 22 21 20 20 18 15 17 19 16 15 14 11 9 8 8 9 10 9 9 12 11 12 18 5 14 16 16 13 9 9 12 19 18 8 15 18 25 15 15 25 25 15
30 28 24 23 21 22 22 22 20 18 17 16 16 16 14 14 13 10 8 9 10 10 11 11 9 8 10 13 20 11 9 12 22 16 15 14 10 16 22 13 13 9 10 13 19 17 23
32 30 25 22 21 22 23 23 22 19 17 16 16 16 15 13 14 12 9 9 11 10 12 11 8 9 9 11 21 22 18 12 8 8 9 15 14 14 12 10 7 9 13 21 15 18 16
28 32 26 21 21 24 24 24 23 22 19 17 15 14 16 14 13 13 11 8 7 11 11 7 11 5 16 14 12 16 22 21 16 14 12 11 11 9 10 11 17 12 12 13 18 18 17
27 29 28 24 25 25 26 24 23 21 19 18 14 15 17 15 13 13 12 9 6 4 16 13 9 11 1 10 7 13 17 18 17 18 13 16 8 18 21 21 18 17 19 17 15 17 18
29 28 30 27 25 26 24 23 21 19 18 17 15 15 16 14 13 15 13 9 9 3 8 32 28 21 24 7 9 15 15 18 20 16 16 14 19 26 17 18 18 21 20 18 17 17 21
28 26 24 30 25 26 25 24 21 20 16 15 15 14 15 13 13 17 19 17 17 15 7 8 31 33 22 17 18 16 22 25 16 18 19 19 24 17 19 18 20 21 22 18 16 19 7
30 29 29 30 25 27 26 26 24 21 19 16 15 13 13 12 12 16 17 10 17 14 4 5 7 9 30 11 8 25 21 24 13 20 18 16 22 20 19 22 19 20 21 19 17 17 9
31 30 31 26 29 29 28 28 25 22 20 17 15 13 14 14 6 12 9 8 4 5 5 8 7 5 7 14 3 12 30 27 18 17 11 10 15 21 24 23 21 22 12 16 22 9 4
33 29 30 28 22 32 28 26 25 22 20 17 15 14 13 15 15 10 9 3 7 2 8 6 6 7 9 14 10 8 28 23 20 17 18 16 17 16 15 21 20 20 12 15 14 6 7
35 33 31 27 29 21 22 24 25 22 20 17 16 15 16 13 13 18 8 17 3 5 2 5 5 7 14 12 12 9 18 20 9 7 10 7 19 12 3 5 19 19 12 7 6 7 5
35 36 31 25 27 18 15 27 24 23 20 18 17 19 16 16 12 14 20 2 6 7 8 3 4 9 8 8 8 16 10 16 18 12 2 10 9 16 11 8 10 18 15 3 5 4 5
37 34 31 25 25 10 22 26 24 23 22 18 17 21 22 22 18 17 16 5 4 4 3 5 5 7 6 6 6 14 15 6 10 18 7 5 9 10 12 13 11 3 11 18 6 7 4
37 36 34 24 24 27 29 20 24 24 22 19 27 24 26 22 24 21 6 9 6 6 7 5 9 12 9 11 8 12 11 7 16 17 13 2 5 5 11 10 16 8 11 11 7 5 7
36 36 36 32 25 25 29 19 23 27 22 22 27 11 10 24 29 17 7 7 9 16 9 8 11 10 11 10 13 12 8 12 14 15 15 7 6 3 2 11 15 8 5 8 5 2 6
36 39 34 33 25 31 26 15 21 19 22 23 18 3 21 29 7 4 7 6 4 10 18 9 13 18 12 11 15 11 12 7 17 15 10 8 4 3 8 3 11 5 9 21 2 2 2
36 38 34 34 24 22 20 18 24 23 27 33 16 6 26 34 5 6 7 7 8 3 7 8 8 10 7 7 7 15 14 10 17 10 14 10 5 1 5 8 5 8 6 3 5 2 4
33 38 39 34 31 18 25 19 26 28 28 27 10 5 8 18 9 6 11 7 6 16 18 15 13 16 7 8 10 1 10 6 15 17 19 8 4 7 4 6 10 6 5 4 5 2 2
32 34 36 35 35 27 28 20 21 27 28 33 9 5 8 5 9 10 4 4 8 6 14 18 6 12 9 7 8 10 13 7 9 18 10 3 4 9 5 18 14 11 9 7 5 4 2
35 31 36 34 34 28 23 15 7 25 25 27 10 4 10 2 15 16 15 9 9 7 4 6 12 8 16 11 8 12 10 9 7 8 12 8 6 11 9 6 11 10 12 12 9 5 6
34 31 33 34 31 30 21 17 5 21 28 9 12 11 2 4 7 7 7 10 10 11 12 21 13 13 11 14 8 17 18 16 8 9 10 6 3 5 4 2 6 2 8 10 8 8 7
31 29 32 33 31 31 22 21 18 14 23 23 14 10 5 4 6 8 11 13 16 13 15 7 21 14 3 6 4 15 12 11 7 1 9 8 3 2 3 2 1 2 3 4 11 8 9
30 28 31 31 32 33 27 21 23 12 21 24 21 12 5 2 5 9 13 3 1 6 7 11 6 5 6 5 3 4 2 4 5 5 7 11 4 1 2 3 5 4 2 0 5 6 6
28 27 30 31 31 30 28 23 19 14 17 21 24 24 6 1 3 6 6 4 7 3 2 6 9 6 9 2 2 3 3 3 3 3 5 2 6 3 4 1 2 2 1 6 4 2 6
27 25 28 30 31 31 28 24 21 8 18 21 19 23 14 4 10 11 3 2 5 2 1 4 6 3 9 3 4 3 4 7 6 6 5 5 4 5 2 2 5 3 4 2 4 3 5
26 25 28 30 29 30 27 21 16 5 16 20 23 19 19 6 8 8 4 3 6 5 2 5 6 2 2 3 2 2 3 6 5 7 7 6 7 4 3 2 6 9 4 3 3 3 4
25 25 26 29 26 26 24 20 18 8 18 19 22 20 17 10 5 8 10 12 15 16 2 18 3 10 8 3 2 2 2 3 4 4 7 6 5 5 7 5 2 8 4 9 7 10 13
Wind_Direction
287 282 284 280 267 277 283 292 291 290 287 282 282 271 269 278 274 282 291 296 294 287 272 254 245 234 211 211 232 239 294 76 15 248 216 226 237 241 244 247 239 239 243 238 239 253 268
301 279 276 281 263 268 276 284 292 297 282 277 281 276 262 264 266 274 287 287 284 271 275 256 243 229 210 238 242 240 242 248 293 278 220 227 238 246 268 245 253 252 243 260 264 245 234
306 300 275 276 265 261 271 276 283 292 292 275 279 279 262 256 260 267 282 285 280 272 265 262 247 240 234 229 235 224 238 242 253 244 265 225 243 266 257 264 288 244 270 242 247 248 234
306 302 288 274 263 257 267 272 275 280 285 286 275 272 268 250 260 260 269 273 265 262 258 261 256 234 246 250 229 233 220 243 246 250 240 245 260 266 268 288 315 272 225 249 240 240 241
296 300 292 272 259 257 263 267 272 272 272 281 279 270 269 251 248 253 258 263 252 254 253 256 260 229 257 258 226 224 219 216 223 242 243 241 250 258 265 255 271 237 232 222 243 239 226
281 291 292 274 256 258 261 262 267 269 271 272 277 270 265 260 240 246 249 270 262 240 250 239 237 241 245 231 226 225 216 222 238 253 262 224 227 236 219 213 223 221 222 234 219 226 226
300 274 283 284 258 256 259 262 260 262 261 265 269 262 257 260 231 235 242 264 265 242 210 198 209 214 142 237 217 211 206 210 224 238 234 229 211 223 220 218 235 261 247 230 237 215 232
311 295 271 274 265 256 255 254 256 257 255 256 260 256 249 250 230 233 233 220 210 224 271 230 240 233 232 284 223 212 188 197 208 221 219 235 229 228 229 235 228 236 249 257 232 228 218
305 295 289 272 264 255 250 245 246 252 251 251 255 253 245 233 223 230 231 236 251 263 257 214 228 234 231 219 230 211 193 202 205 217 215 218 237 234 240 236 240 228 241 243 233 237 234
316 296 299 286 255 251 249 244 242 245 247 245 245 246 227 211 225 231 236 245 259 278 273 216 217 235 220 202 247 225 215 205 222 228 217 236 248 239 231 232 235 239 230 247 250 234 198
318 308 291 295 280 246 244 245 244 240 240 237 235 225 218 205 186 185 210 221 183 194 277 123 166 200 210 185 36 219 201 208 225 222 209 224 228 234 230 237 223 245 219 241 245 262 192
320 314 314 280 267 262 242 238 241 237 231 229 221 210 201 191 202 210 198 192 136 127 248 163 136 180 175 199 212 312 189 205 226 239 238 243 249 240 239 228 247 255 213 285 236 222 208
327 323 314 286 274 252 242 231 238 233 224 221 209 202 200 194 205 217 192 153 139 232 103 180 186 183 211 199 215 217 190 204 203 206 210 226 249 238 121 242 231 218 183 236 232 195 212
328 329 318 302 273 251 248 225 227 231 219 212 210 199 192 176 206 182 161 147 227 244 207 118 186 204 214 206 210 215 210 211 223 234 326 220 238 210 176 200 226 206 190 224 183 190 139
331 326 323 319 263 317 340 223 217 226 213 209 210 192 191 182 201 177 161 208 236 244 179 179 165 209 199 195 229 207 207 208 216 209 219 241 221 159 181 214 201 182 198 237 280 176 106
333 330 330 325 291 280 323 223 217 218 206 198 186 186 202 194 190 179 198 231 229 247 143 189 212 198 188 184 198 202 212 224 219 226 194 191 296 170 200 220 200 207 167 207 225 195 145
335 334 326 330 310 294 310 217 226 219 195 194 188 178 210 210 185 177 219 226 256 243 182 192 230 205 225 179 204 199 215 240 192 197 145 168 239 314 199 189 185 197 199 228 244 180 126
336 338 326 338 318 289 298 223 223 195 193 196 173 172 168 166 179 193 220 209 230 249 211 233 261 267 216 194 201 201 244 226 183 155 183 168 275 235 259 195 197 195 206 213 250 41 50
334 336 334 337 338 310 316 322 207 195 192 184 158 139 177 177 194 206 227 231 221 277 207 206 247 245 250 213 197 206 228 219 163 150 166 168 208 252 331 173 145 214 227 283 298 326 173
329 335 338 339 339 308 312 352 197 191 191 190 163 165 156 197 224 213 216 224 221 222 243 241 264 249 235 236 203 262 232 230 168 174 153 157 218 242 273 139 140 185 211 270 228 344 9
331 333 335 337 340 320 331 359 205 193 188 186 171 202 175 178 215 230 196 240 216 239 215 197 252 245 242 218 209 235 228 232 170 189 161 258 257 271 285 139 152 164 190 239 267 233 59
329 332 336 339 339 335 314 343 330 193 185 192 150 188 170 220 204 210 226 222 228 217 254 226 225 228 231 217 198 202 190 228 177 185 183 212 294 309 73 56 156 163 181 197 223 236 261
328 329 333 336 335 341 305 337 336 190 188 184 178 188 152 210 198 196 213 226 226 213 240 245 264 228 260 226 252 234 196 212 166 168 178 173 269 323 45 60 62 360 195 194 206 213 213
327 326 331 334 336 335 303 317 352 196 202 207 196 174 163 247 246 229 231 220 216 226 230 241 224 194 249 136 165 82 38 51 37 137 178 180 195 294 331 73 121 199 10 223 203 207 214
327 326 329 330 335 335 320 297 322 229 204 213 211 199 178 252 285 275 279 134 54 264 223 221 211 173 252 35 143 99 82 23 12 13 349 181 174 316 117 269 310 138 27 45 179 236 213
325 323 327 328 333 334 332 289 347 201 202 212 223 227 181 105 247 340 332 76 282 217 231 173 224 191 171 253 149 147 154 125 190 287 345 131 116 41 349 215 241 87 27 325 49 314 330
323 322 326 328 330 333 335 294 327 249 210 211 223 227 221 205 264 285 308 136 282 220 88 125 140 133 149 229 184 164 160 156 165 172 161 161 129 182 231 314 315 127 140 316 113 243 332
322 322 327 328 332 332 332 302 314 252 210 212 226 224 210 200 262 266 277 220 249 245 179 167 100 207 149 200 131 233 157 191 149 157 169 166 169 176 127 188 270 142 83 159 171 101 87
320 319 322 327 327 328 330 309 290 183 215 209 220 223 225 225 258 254 288 278 253 255 176 176 264 164 171 139 198 240 220 134 147 171 179 175 200 167 187 202 204 151 99 128 137 133 119